Date String (YYYY-MM-DD hh:mm:ss) UTC,Instrument flags,Ambient pressure (hPa),Sample flow (lpm),Bypass flow (lpm),Sample temperature (°C),Ambient temperature (°C),ASC tube jacket temperature (°C),LED temperature (°C),Box temperature (°C),Sample RH (%),Span deviation,Mass concentration (μg/m³),Mass concentration (μg/m³),Mass concentration (μg/m³)
DateTimeUTC,F1_M11,P_M11,Q1_M11,Q2_M11,T1_M11,T2_M11,T3_M11,T4_M11,T5_M11,U1_M11,ZSPAN_M11,X0_M11,X2_M11,X1_M11
2021-12-09 22:00:00,,0813.9,5.01,0.00,26.4,25.6,00.0,35.3,28.2,12.9,0000.0,0010.71,0003.18,0001.98
2021-12-09 22:01:00,,0813.9,5.02,0.00,26.4,25.6,00.0,35.3,28.2,12.9,0000.0,0011.60,0003.16,0001.98
2021-12-09 22:02:00,,0813.8,4.99,0.00,26.4,25.6,00.0,35.3,28.2,12.9,0000.0,0013.30,0003.21,0001.99
2021-12-09 22:03:00,,0813.8,5.01,0.00,26.4,25.6,00.0,35.3,28.2,13.0,0000.0,0013.66,0003.23,0001.99
2021-12-09 22:04:00,,0813.8,5.00,0.00,26.4,25.6,00.0,35.3,28.2,13.1,0000.0,0012.88,0003.23,0001.98
2021-12-09 22:05:00,,0813.8,5.00,0.00,26.4,25.6,00.0,35.3,28.2,13.1,0000.0,0012.51,0003.23,0001.97
2021-12-09 22:06:00,,0813.8,5.00,0.00,26.4,25.6,00.0,35.3,28.2,13.1,0000.0,0012.40,0003.25,0001.97
2021-12-09 22:07:00,,0813.8,4.99,0.00,26.4,25.6,00.0,35.3,28.2,13.0,0000.0,0012.23,0003.24,0001.96
2021-12-09 22:08:00,,0813.8,5.01,0.00,26.4,25.6,00.0,35.3,28.2,13.0,0000.0,0012.30,0003.25,0001.95
2021-12-09 22:09:00,,0813.8,5.01,0.00,26.4,25.6,00.0,35.3,28.2,13.0,0000.0,0012.18,0003.27,0001.95
2021-12-09 22:10:00,,0813.8,4.99,0.00,26.4,25.6,00.0,35.3,28.2,13.0,0000.0,0012.13,0003.28,0001.94
2021-12-09 22:11:00,,0813.8,5.01,0.00,26.4,25.6,00.0,35.3,28.2,12.9,0000.0,0012.37,0003.28,0001.94
2021-12-09 22:12:00,,0814.0,5.00,0.00,26.4,25.6,00.0,35.3,28.2,12.8,0000.0,0011.91,0003.29,0001.94
2021-12-09 22:13:00,,0814.1,5.00,0.00,26.4,25.6,00.0,35.3,28.2,12.8,0000.0,0010.59,0003.25,0001.93
2021-12-09 22:14:00,,0814.2,5.00,0.00,26.4,25.6,00.0,35.3,28.2,12.8,0000.0,0010.67,0003.24,0001.93
2021-12-09 22:15:00,,0813.8,5.02,0.00,26.4,25.6,00.0,35.3,28.2,12.7,0000.0,0010.68,0003.24,0001.95
2021-12-09 22:16:00,,0813.8,4.99,0.00,26.4,25.6,00.0,35.3,28.3,12.7,0000.0,0010.80,0003.25,0001.99
2021-12-09 22:17:00,,0814.2,5.00,0.00,26.4,25.6,00.0,35.3,28.3,12.7,0000.0,0011.15,0003.29,0002.01
2021-12-09 22:18:00,,0814.3,5.00,0.00,26.4,25.6,00.0,35.3,28.2,12.9,0000.0,0012.83,0003.36,0002.05
2021-12-09 22:19:00,,0814.2,5.00,0.00,26.4,25.6,00.0,35.3,28.2,13.0,0000.0,0013.34,0003.42,0002.09
2021-12-09 22:20:00,,0814.3,4.99,0.00,26.4,25.5,00.0,35.3,28.1,13.2,0000.0,0013.66,0003.43,0002.11
2021-12-09 22:21:00,,0814.2,5.02,0.00,26.4,25.5,00.0,35.3,28.1,13.4,0000.0,0013.39,0003.43,0002.13
2021-12-09 22:22:00,,0814.2,4.98,0.00,26.4,25.5,00.0,35.3,28.1,13.4,0000.0,0014.20,0003.47,0002.13
2021-12-09 22:23:00,,0814.3,5.01,0.00,26.4,25.5,00.0,35.3,28.1,13.0,0000.0,0014.72,0003.47,0002.12
2021-12-09 22:24:00,,0814.2,4.99,0.00,26.4,25.6,00.0,35.3,28.2,12.8,0000.0,0014.98,0003.50,0002.14
2021-12-09 22:25:00,,0814.3,5.01,0.00,26.4,25.6,00.0,35.3,28.2,12.8,0000.0,0013.92,0003.48,0002.14
2021-12-09 22:26:00,,0814.2,5.00,0.00,26.4,25.6,00.0,35.3,28.2,12.9,0000.0,0013.71,0003.48,0002.13
2021-12-09 22:27:00,,0814.3,4.99,0.00,26.4,25.6,00.0,35.3,28.2,12.9,0000.0,0013.89,0003.50,0002.12
2021-12-09 22:28:00,,0814.2,5.01,0.00,26.4,25.6,00.0,35.3,28.2,12.8,0000.0,0014.27,0003.47,0002.11
2021-12-09 22:29:00,,0814.2,4.99,0.00,26.4,25.6,00.0,35.3,28.2,12.8,0000.0,0012.85,0003.44,0002.10
2021-12-09 22:30:00,,0814.3,5.01,0.00,26.4,25.6,00.0,35.3,28.2,12.8,0000.0,0012.24,0003.43,0002.07
2021-12-09 22:31:00,,0814.3,4.99,0.00,26.4,25.6,00.0,35.3,28.2,12.7,0000.0,0012.14,0003.42,0002.06
2021-12-09 22:32:00,,0814.3,5.00,0.00,26.4,25.6,00.0,35.3,28.2,12.7,0000.0,0012.69,0003.46,0002.07
2021-12-09 22:33:00,,0814.3,5.01,0.00,26.4,25.6,00.0,35.3,28.2,12.7,0000.0,0011.59,0003.47,0002.09
2021-12-09 22:34:00,,0814.3,4.98,0.00,26.4,25.6,00.0,35.4,28.2,12.7,0000.0,0011.36,0003.56,0002.10
2021-12-09 22:35:00,,0814.3,4.99,0.00,26.4,25.6,00.0,35.3,28.2,12.6,0000.0,0011.23,0003.59,0002.12
2021-12-09 22:36:00,,0814.2,5.00,0.00,26.4,25.6,00.0,35.4,28.2,12.6,0000.0,0012.30,0003.60,0002.13
2021-12-09 22:37:00,,0814.3,5.00,0.00,26.4,25.6,00.0,35.4,28.2,12.6,0000.0,0013.43,0003.62,0002.14
2021-12-09 22:38:00,,0814.3,4.99,0.00,26.4,25.6,00.0,35.4,28.3,12.6,0000.0,0014.04,0003.63,0002.13
2021-12-09 22:39:00,,0814.3,5.01,0.00,26.5,25.6,00.0,35.4,28.3,12.6,0000.0,0014.10,0003.66,0002.13
2021-12-09 22:40:00,,0814.2,5.01,0.00,26.5,25.6,00.0,35.4,28.3,12.6,0000.0,0014.93,0003.68,0002.12
2021-12-09 22:41:00,,0814.3,4.99,0.00,26.5,25.6,00.0,35.4,28.3,12.6,0000.0,0015.20,0003.66,0002.11
2021-12-09 22:42:00,,0814.2,5.01,0.00,26.5,25.6,00.0,35.4,28.3,12.6,0000.0,0014.99,0003.66,0002.13
2021-12-09 22:43:00,,0814.2,4.99,0.00,26.5,25.7,00.0,35.4,28.3,12.5,0000.0,0014.27,0003.65,0002.12
2021-12-09 22:44:00,,0814.2,5.01,0.00,26.5,25.7,00.0,35.4,28.3,12.5,0000.0,0014.80,0003.64,0002.11
2021-12-09 22:45:00,,0814.1,4.99,0.00,26.5,25.7,00.0,35.4,28.3,12.5,0000.0,0014.97,0003.64,0002.11
2021-12-09 22:46:00,,0814.2,5.01,0.00,26.5,25.7,00.0,35.4,28.3,12.5,0000.0,0014.49,0003.55,0002.08
2021-12-09 22:47:00,,0814.3,5.01,0.00,26.5,25.7,00.0,35.4,28.3,12.5,0000.0,0014.30,0003.59,0002.07
2021-12-09 22:48:00,,0814.2,4.98,0.00,26.5,25.7,00.0,35.4,28.3,12.4,0000.0,0014.06,0003.64,0002.07
2021-12-09 22:49:00,,0814.3,5.01,0.00,26.5,25.7,00.0,35.4,28.3,12.3,0000.0,0013.92,0003.63,0002.08
2021-12-09 22:50:00,,0814.2,4.99,0.00,26.5,25.7,00.0,35.4,28.3,12.3,0000.0,0012.66,0003.63,0002.11
2021-12-09 22:51:00,,0814.2,4.99,0.00,26.5,25.7,00.0,35.4,28.3,12.4,0000.0,0012.41,0003.64,0002.13
2021-12-09 22:52:00,,0814.0,5.01,0.00,26.5,25.7,00.0,35.4,28.3,12.4,0000.0,0013.22,0003.64,0002.16
2021-12-09 22:53:00,,0813.9,4.99,0.00,26.5,25.6,00.0,35.4,28.3,12.4,0000.0,0013.83,0003.66,0002.18
2021-12-09 22:54:00,,0813.7,5.01,0.00,26.5,25.7,00.0,35.4,28.3,12.4,0000.0,0014.07,0003.67,0002.22
2021-12-09 22:55:00,,0813.6,5.00,0.00,26.5,25.7,00.0,35.4,28.3,12.4,0000.0,0014.09,0003.72,0002.24
2021-12-09 22:56:00,,0813.6,5.00,0.00,26.5,25.7,00.0,35.4,28.3,12.4,0000.0,0013.48,0003.71,0002.27
2021-12-09 22:57:00,,0813.6,5.00,0.00,26.5,25.7,00.0,35.4,28.3,12.4,0000.0,0013.61,0003.77,0002.30
2021-12-09 22:58:00,,0813.6,5.00,0.00,26.5,25.7,00.0,35.4,28.3,12.4,0000.0,0013.36,0003.75,0002.35
2021-12-09 22:59:00,,0813.5,5.01,0.00,26.5,25.7,00.0,35.4,28.3,12.4,0000.0,0013.53,0003.71,0002.36
